User: anonymous   Login
Location: Corcelles
(46.1547°N, 4.7234°E)
Time: 07:29:18
(UTC+00:00)
Language:

NPP - Orbit

View from above orbital plane
View from above orbital plane
View from above satellite
View from above satellite

Ground track
Ground track

The orbit data is extracted from the following two-line orbital elements,

1 37849U 11061A   20273.86345336 +.00000012 +00000-0 +26395-4 0  9994
2 37849 098.7067 210.3897 0000923 059.1691 015.3741 14.19555345462448
Epoch (UTC): 29 September 2020 20:43:22
Eccentricity: 0.0000923
inclination: 98.7067°
perigee height: 826 km
apogee height: 827 km
right ascension of ascending node: 210.3897°
argument of perigee: 59.1691°
revolutions per day: 14.19555345
mean anomaly at epoch: 15.3741°
orbit number at epoch: 46244

The dashed part of the orbit path shows where the satellite is in the earth's shadow,  

DLR